Regional Weather Roundup
Issued by NWS

Home | Current Version | Previous Version | Text Only | Print | Product List | Glossary On
Versions: 1 2 3 4 5 6 7 8 9 10 11 12 13 14 15 16 17 18 19 20 21 22 23 24 25 26 27
000
ASUS45 KBOU 300107
RWRCO

WEATHER ROUNDUP FOR COLORADO
NATIONAL WEATHER SERVICE DENVER/BOULDER CO
700 PM MDT FRI APR 29 2016

NOTE: "FAIR" INDICATES FEW OR NO CLOUDS BELOW 12000 FEET WITH NO
SIGNIFICANT WEATHER AND/OR OBSTRUCTIONS TO VISIBILITY.

COZ001>005-013-030-031-300200-
...NORTHWEST COLORADO...

CITY           SKY/WX    TMP DP  RH WIND       PRES   REMARKS
CRAIG          CLOUDY    46  33  60 N14       29.80R
HAYDEN         PTSUNNY   41  32  70 S7        29.80S
MEEKER         CLOUDY    41  36  82 SW9       29.81S
MOUNT WERNER   NOT AVBL
STEAMBOAT SPGS CLOUDY    35  33  94 E3        29.81S
WALDEN         CLOUDY    32  28  86 CALM      29.83F
$$

COZ006>008-011-300200-
...WEST CENTRAL VALLEYS...

CITY           SKY/WX    TMP DP  RH WIND       PRES   REMARKS
GRAND JUNCTION FAIR      53  36  52 W13       29.75R
MONTROSE       PTSUNNY   48  33  56 SW15G23   29.79R
EAGLE          CLOUDY    39  39 100 W10       29.82S
RIFLE          LGT RAIN  45  39  79 SW12      29.79R
DELTA          NOT AVBL
NUCLA          NOT AVBL
$$

COZ017>023-064>068-300200-
...SOUTHWEST COLORADO...

CITY           SKY/WX    TMP DP  RH WIND       PRES   REMARKS
DURANGO        PTSUNNY   47  30  51 W14       29.79R
CORTEZ         FAIR      51  29  42 W10       29.81R
PAGOSA SPRINGS LGT SNOW  36  36 100 CALM      29.84S
TELLURIDE      PTSUNNY   33  31  92 W5        29.88S WCI  29
WOLF CREEK PAS SNOW      21  21 100 MISG      29.90R VSB<1/4
$$

COZ009-010-012-014-032>034-037-058>063-300200-
...CENTRAL COLORADO...

CITY           SKY/WX    TMP DP  RH WIND       PRES   REMARKS
ASPEN          LGT SNOW  34  32  92 NW3       29.80S FOG
BUENA VISTA    LGT SNOW  31  30  94 SE6       29.85R VSB 3/4 WCI  26
COPPER MTN     NOT AVBL
BERTHOUD PASS  HAZE      14   5  67 E15       29.86S VSB<1/4 WCI  -1
COTTONWOOD PAS SNOW      30  28  93 CALM      29.86R VSB 1/2
GUNNISON       PTSUNNY   39  30  70 E5        29.81S
KREMMLING      CLOUDY    39  30  70 N3        29.81S
LEADVILLE      SNOW      26  25  96 S10       29.81S VSB 1/4 WCI  16
MONARCH PASS   CLOUDY    19  18  93 NE13      29.95R WCI   7
SALIDA         CLOUDY    34  31  86 E8        29.92S WCI  27
SUNLIGHT       SNOW      30  30 100 CALM      29.89S VSB 1/4
WILKERSON PASS CLOUDY   N/A N/A N/A E12       29.87F FOG
$$

COZ069>075-300200-
...SAN LUIS VALLEY/SANGRE DE CRISTO MOUNTAINS...

CITY           SKY/WX    TMP DP  RH WIND       PRES   REMARKS
ALAMOSA        CLOUDY    35  34  96 S5        29.81S WCI  31
LA VETA PASS   LGT SNOW  23  21  93 MISG      29.84S VSB 1
SAGUACHE       LGT SNOW  32  32 100 CALM      29.83R
$$

COZ035-036-038>040-300200-
...NORTHERN COLORADO FRONT RANGE...

CITY           SKY/WX    TMP DP  RH WIND       PRES   REMARKS
DENVER INTL AP LGT SNOW  33  29  85 N7        29.89F VSB 1   WCI  27
DMNS CITY PARK   N/A     33  33  98 NE3G12    29.91S
AURORA         FLURRIES  32  32  99 N7        29.90F WCI  26
FRONT RANGE AP LGT SNOW  32  32 100 N7        29.90F VSB 1   WCI  26
ERIE MUNI ARPT DRIZZLE   36  34  94 N3        29.91S
BOULDER MUN AP CLOUDY    36  36 100 NW3       29.90F
CENTENNIAL     LGT SNOW  33  31  92 N8        29.89F FOG     WCI  26
BROOMFIELD     LGT RAIN  36  36 100 N6        29.91F
FORT COLLINS   FAIR      37  34  87 N5        29.92F
LONGMONT       MIX PCPN  38  35  89 N3        29.93F
$$

COZ041-046-047-076>085-087-088-300200-
...PIKES PEAK/PALMER DIVIDE AND SOUTHERN FOOTHILLS...

CITY           SKY/WX    TMP DP  RH WIND       PRES   REMARKS
COLO. SPRINGS  LGT SNOW  33  30  88 N5        29.88S VSB 1   WCI  29
A. F. ACADEMY  CLOUDY    32  32 100 N12       29.86F WCI  23
SCHRIEVER AFB  NOT AVBL
ELLICOTT       NOT AVBL
FALCON         LGT SNOW  31  28  90 N9        29.87S WCI  23
FORT CARSON    MOCLDY    32  32 100 N6        29.87R WCI  26
LIMON          LGT SNOW  30  30 100 NW13      29.87S VSB 3/4 WCI  20
MONUMENT HILL  LGT SNOW  28  28 100 N9        29.88F WCI  20
TRINIDAD       LGT SNOW  33  30  88 NW6       29.87R FOG     WCI  28
$$

COZ042>045-048>051-090-091-300200-
...NORTHEAST COLORADO...

CITY           SKY/WX    TMP DP  RH WIND       PRES   REMARKS
GREELEY ARPT   CLOUDY    37  34  87 N6        29.93S
AKRON          SNOW      31  30  96 N13       29.87F VSB 1/2 WCI  21
BURLINGTON     LGT SNOW  33  30  88 N13       29.85S FOG     WCI  24
WRAY           NOT AVBL
STERLING       SNOW      32  32 100 N5        29.90F VSB 1/2 WCI  27
HOLYOKE        NOT AVBL
FORT MORGAN    LGT SNOW  32  32  99 N8        29.91S WCI  25
$$

COZ086-089-092>099-300200-
...SOUTHEAST COLORADO...

CITY           SKY/WX    TMP DP  RH WIND       PRES   REMARKS
PUEBLO         LGT RAIN  38  33  82 CALM      29.89S
LA JUNTA       CLOUDY    38  35  89 N16       29.87S FOG
LAMAR          CLOUDY    39  35  86 N9        29.84S
SPRINGFIELD      N/A     37  35  92 N16       29.82S
$$




USA.gov is the U.S. government's official web portal to all federal, state and local government web resources and services.